Regional Weather Roundup
Issued by NWS

Home | Current Version | Previous Version | Text Only | Print | Product List | Glossary On
Versions: 1 2 3 4 5 6 7 8 9 10 11 12 13 14 15 16 17 18 19 20 21 22 23 24 25 26 27 28 29 30 31 32 33 34 35 36 37 38 39 40 41 42 43 44 45 46 47 48 49 50
000
ASUS43 KTOP 291259
RWRKS

WEATHER ROUNDUP FOR KANSAS
NATIONAL WEATHER SERVICE GOODLAND KS
800 AM CDT SAT APR 29 2017

NOTE:  "FAIR" INDICATES FEW OR NO CLOUDS BELOW 12,000 FEET WITH NO
SIGNIFICANT WEATHER AND/OR OBSTRUCTIONS TO VISIBILITY.

KSZ001>006-013>018-027>032-041>047-291400-
NORTHWEST KANSAS

CITY           SKY/WX    TMP DP  RH WIND       PRES   REMARKS
GOODLAND       SNOW      32  32 100 N17G26    30.06R VSB 1/2 WCI  21
HAYS           LGT RAIN  39  37  92 N18G25    29.95F WCI  30
HILL CITY      LGT SNOW  35  34  96 N16       30.00F FOG     WCI  25
RUSSELL        LGT RAIN  40  38  93 N13       29.94F WCI  32
$$

KSZ061>065-074>080-084>089-291400-
SOUTHWEST KANSAS

CITY           SKY/WX    TMP DP  RH WIND       PRES   REMARKS
DODGE CITY     MIX PCPN  35  34  96 N23G36    29.85F WCI  23
ELKHART          N/A     31  29  93 NW12        N/A  WCI  22
GARDEN CITY    CLOUDY    33  31  92 N24G33    29.89R WCI  20
GREAT BEND     LGT RAIN  40  38  93 N25       29.87F WCI  29
LIBERAL        LGT RAIN  34  33  96 N21G29    29.88R WCI  22
$$

KSZ066>073-081>083-090>101-291400-
SOUTHEAST KANSAS

CITY           SKY/WX    TMP DP  RH WIND       PRES   REMARKS
CHANUTE        LGT RAIN  51  49  92 N15G24    29.77R
COFFEYVILLE    CLOUDY    53  51  93 NE21G29   29.67F
HUTCHINSON     RAIN      42  39  89 NE22G33   29.82F
MEDICINE LODGE   N/A     41  39  93 NE22      29.78R
NEWTON         LGT RAIN  42  41  96 N21       29.87R FOG
PARSONS        TSTM      54  51  90 N14G23    29.73R
WICHITA INTL   TSTM      44  43  96 NE26G37   29.78F FOG
WICHITA JABRA  HVY RAIN  44  43  96 NE21G28   29.83F
WINFIELD       HVY RAIN  45  44  97 N26G32    29.78F FOG
$$

KSZ007>012-019>026-033>040-048>060-102>105-291400-
NORTHEAST KANSAS

CITY           SKY/WX    TMP DP  RH WIND       PRES   REMARKS
CONCORDIA      LGT RAIN  40  40 100 NE15G21   29.98F FOG     WCI  32
EMPORIA        LGT RAIN  45  45 100 N15G23    29.87S
LAWRENCE       LGT RAIN  47  46  97 N12       29.89R FOG
MANHATTAN      RAIN      44  41  89 NE13G24   29.93F FOG
OLATHE IND     LGT RAIN  47  46  97 NE10      29.88R FOG
OLATHE EXE     TSTM      46  46 100 NE12      29.87R FOG
SALINA         LGT RAIN  44  41  89 NE16G26   29.93F
TOPEKA BILLARD LGT RAIN  45  45 100 N14G21    29.91R
TOPEKA FORBES  LGT RAIN  47  45  93 N14G22    29.89S FOG
$$




USA.gov is the U.S. government's official web portal to all federal, state and local government web resources and services.